Home > Weather > Schwyz > Past weeks

Flag for Switzerland Weather for the Past 2 Weeks in Schwyz, Schwyz, Switzerland

Now
32 °F

Chilly.


Feels Like: 28 °F
Forecast: 27 / 46 °F
Wind: 5 mph from Southeast

Location: Altdorf

Current Time: Feb 11, 2016 at 8:38:54 AM

Latest Report: Feb 11, 2016 at 7:00 AM


Visibility: N/A

Pressure: 29.88 "Hg (28.02 "Hg at 515m altitude)

Humidity: 64%

Dew point: 22 °F

Location of SchwyzLocation

Historic Weather in Schwyz — Graph

°F

Schwyz Temperature Yesterday

Maximum temperature yesterday: 42 °F (at 11:00 AM)
Minimum temperature yesterday: 31 °F (at 11:00 PM)
Average temperature yesterday: 38 °F

High & Low Weather Summary for the Past Weeks

 TemperatureHumidityPressure
High60 °F (Feb 1, 1:00 PM)97% (Jan 31, 3:00 AM)30.53 "Hg (Jan 31, 3:00 AM)
Low30 °F (Feb 11, 12:00 AM)29% (Feb 6, 2:00 PM)29.32 "Hg (Feb 9, 6:00 PM)
Average43 °F76%30.15 "Hg
* Reported Jan 27 7:00 AM — Feb 11 7:00 AM, Schwyz, Weather by CustomWeather, © 2016

Note: Actual official high and low records may vary slightly from our data, if they occured in-between our weather recording intervals... More about our weather records

Advertising

Schwyz Weather History for the Previous 24 Hours

 ConditionsComfort  
Time TempWeatherWind HumidityBarometerVisibility
7:00 AM
Thu, Feb 11
32 °FChilly.5 mph64%29.88 "HgN/A
5:00 AM32 °FChilly.2 mph76%29.88 "HgN/A
4:00 AM31 °FChilly.2 mph81%29.87 "HgN/A
3:00 AM32 °FChilly.1 mph76%29.87 "HgN/A
2:00 AM32 °FChilly.3 mph79%29.85 "HgN/A
1:00 AM30 °FChilly.2 mph86%29.84 "HgN/A
12:00 AM30 °FChilly.1 mph86%29.83 "HgN/A
11:00 PM
Wed, Feb 10
31 °FChilly.2 mph84%29.82 "HgN/A
9:00 PM32 °FChilly.3 mph80%29.78 "HgN/A
8:00 PM35 °FChilly.2 mph69%29.76 "HgN/A
7:00 PM37 °FChilly.3 mph66%29.74 "HgN/A
6:00 PM38 °FChilly.1 mph62%29.72 "HgN/A
5:00 PM38 °FChilly.3 mph65%29.70 "HgN/A
4:00 PM39 °FOvercast.5 mph67%29.69 "Hg9 mi
3:00 PM38 °FChilly.5 mph71%29.67 "HgN/A
2:00 PM37 °FChilly.14 mph71%29.66 "HgN/A
1:00 PM40 °FOvercast.9 mph56%29.64 "Hg9 mi
12:00 PM41 °FQuite cool.2 mph52%29.64 "HgN/A
11:00 AM42 °FQuite cool.5 mph40%29.62 "HgN/A
10:00 AM40 °FOvercast.18 mph49%29.61 "Hg12 mi
9:00 AM40 °FChilly.16 mph50%29.59 "HgN/A
8:00 AM39 °FChilly.18 mph54%29.57 "HgN/A
Weather by CustomWeather, © 2016

See weather overviewHow to use our weather pages